User: anonymous   Login
Location: Ballingbuur
(53.0000°N, 5.7667°E)
Time: 11:16:44
(UTC+00:00)
Language:

Cosmos 1812 - Orbit

View from above orbital plane
View from above orbital plane
View from above satellite
View from above satellite

Ground track
Ground track

The orbit data is extracted from the following two-line orbital elements,

1 17295U 87003A   21063.67270983  .00000891  00000-0  44956-4 0  9996
2 17295  82.5114 249.0513 0004777 105.1980 254.9781 15.15865483864123
Epoch (UTC): 04 March 2021 16:08:42
Eccentricity: 0.0004777
inclination: 82.5114°
perigee height: 515 km
apogee height: 521 km
right ascension of ascending node: 249.0513°
argument of perigee: 105.1980°
revolutions per day: 15.15865483
mean anomaly at epoch: 254.9781°
orbit number at epoch: 86412

The dashed part of the orbit path shows where the satellite is in the earth's shadow,  

DLR